Regional Weather Roundup
Issued by NWS

Home | Current Version | Previous Version | Graphics & Text | Print | Product List | Glossary On
Versions: 1 2 3 4 5 6 7 8 9 10 11 12 13 14 15 16 17 18 19 20 21 22 23 24 25 26 27 28 29 30 31 32 33 34 35 36 37 38 39 40 41 42 43 44 45 46 47 48 49 50
000
ASUS43 KIND 150809
RWRIN

WEATHER ROUNDUP FOR INDIANA
NATIONAL WEATHER SERVICE INDIANAPOLIS IN
300 AM EST FRI DEC 15 2017

NOTE: "FAIR" INDICATES FEW OR NO CLOUDS BELOW 12,000 FEET WITH NO
SIGNIFICANT WEATHER AND/OR OBSTRUCTIONS TO VISIBILITY.

* - STATION DOES NOT REPORT WEATHER SUCH AS PRECIPITATION OR FOG.

+ - STATION NOT QUALITY CONTROLLED BY THE NATIONAL WEATHER SERVICE.
    USE DATA WITH CAUTION...ESPECIALLY DEWPOINT AND RELATIVE
    HUMIDITY OBSERVATIONS.

INZ001>003-010>013-019-020-150900-
NORTHWEST INDIANA

CITY           SKY/WX    TMP DP  RH WIND       PRES   REMARKS
GARY /AIRPORT/ CLOUDY    23  13  65 SW3       30.01F
KNOX *+        CLOUDY    14  12  92 SW5       30.00F WCI   6
LA PORTE +     CLOUDY   N/A N/A N/A SW5       30.00R
MICHIGAN CITY+ CLOUDY    19  10  68 SW7       30.00S WCI  10
MONTICELLO +   CLOUDY    18  13  80 CALM      30.01F
RENSSELAER +   PTCLDY    18  12  79 SW3       30.02S
VALPARAISO     CLOUDY    18  12  77 SW7       30.00S WCI   9

$$

LMZ046-743>745-150900-
SOUTHERN LAKE MICHIGAN

STATION/POSITION TIME  TEMP    WIND        PRES    WAVE
                       AIR SEA DIR/SP/G            HT
                 (UTC) (F)     (DEG/KT/KT) (MB)    (FT)
BURNS HARBOR     0740   22     210/  8/ 11 1016.6S
MICHIGAN CITY    0740   22     200/ 12/ 14   N/A

$$

INZ004-005-014>016-021>024-150900-
NORTH CENTRAL INDIANA

CITY           SKY/WX    TMP DP  RH WIND       PRES   REMARKS
GOSHEN         CLOUDY    18  12  77 SW7       29.98F WCI   9
LOGANSPORT +   PTCLDY    19  16  86 SW5       30.02S WCI  13
PERU/GRISSOM   CLOUDY    21  16  80 SW6       30.00S WCI  14
ROCHESTER +    CLOUDY    23  18  80 SW3       30.01S
SOUTH BEND     CLOUDY    14  11  87 SW9       29.98F WCI   2
WARSAW +       MOCLDY    19  14  79 SW3       29.99F

$$

INZ006>009-017-018-025>027-150900-
NORTHEAST INDIANA

CITY           SKY/WX    TMP DP  RH WIND       PRES   REMARKS
AUBURN +       CLOUDY    23  14  68 CALM      30.00S
FORT WAYNE     CLOUDY    23  16  74 S10       30.00F WCI  12
HUNTINGTON +   CLOUDY    23  15  71 S3        30.00F
KENDALLVILLE + CLOUDY    20  13  73 SW7       29.97F WCI  11

$$

INZ028-029-035-036-043>045-051>053-150900-
WEST CENTRAL INDIANA

CITY           SKY/WX    TMP DP  RH WIND       PRES   REMARKS
CRAWFORDSVL +  CLOUDY    22  17  80 SW5         N/A  WCI  15
GREENCASTLE +  CLOUDY    27  14  59 CALM      30.03F
LAFAYETTE      PTCLDY    20  17  88 CALM      30.03S
TERRE HAUTE    CLOUDY    27  17  66 NW7       30.05F WCI  19

$$

INZ030>032-037>040-046>048-054>057-064-065-150900-
CENTRAL INDIANA

CITY           SKY/WX    TMP DP  RH WIND       PRES   REMARKS
FRANKFORT +    CLOUDY    25  17  70 SW6       30.03S WCI  18
GREENWOOD *+   CLOUDY    26  19  73 S5        30.03F WCI  20
INDIANAPOLIS   CLOUDY    25  16  68 S5        30.03F WCI  19
-EAGLE CREEK   CLOUDY    25  15  66 S5        30.02F WCI  19
KOKOMO +       CLOUDY    23  16  74 S8        30.02S WCI  14
MT COMFORT *+  CLOUDY    21  19  93 S5        30.03S WCI  15
SHELBYVILLE    CLEAR     20  13  74 S3        30.03F
ZIONSVILLE +   CLOUDY    23  17  75 S6        30.03S WCI  16

$$

INZ033-034-041-042-049-050-058-059-150900-
EAST CENTRAL INDIANA

CITY           SKY/WX    TMP DP  RH WIND       PRES   REMARKS
MUNCIE         CLOUDY    24  13  62 S6        30.02S WCI  17
RICHMOND +     CLOUDY    16  14  93 S3        30.02F

$$

INZ060-061-067>069-081>083-085>088-150900-
SOUTHWEST INDIANA

CITY           SKY/WX    TMP DP  RH WIND       PRES   REMARKS
EVANSVILLE     CLOUDY    31  23  72 W3        30.09S
HUNTINGBURG +  CLOUDY    30  23  75 CALM      30.08R
WASHINGTON +   CLOUDY    28  22  76 CALM      30.07S

$$

INZ062-063-066-070>080-084-089>092-150900-
SOUTH CENTRAL AND SOUTHEAST INDIANA

CITY           SKY/WX    TMP DP  RH WIND       PRES   REMARKS
BLOOMINGTON    CLOUDY    24  16  71 CALM      30.04F
MADISON *+     PTCLDY    25  19  80 CALM      30.07S
NORTH VERNON + PTCLDY    23  18  80 CALM      30.06F
SEYMOUR +      PTCLDY    23  19  86 CALM      30.06F

$$





USA.gov is the U.S. government's official web portal to all federal, state and local government web resources and services.